sat.trackr.live / text

‹ back to catalog

STARLINK-34848

NORAD 65402 · 2025-191Z

PAYLOAD ACTIVE UNKNOWN

§ Identity

Operator
Country
US
Launch date
2025-08-30
Launch site
AFWTR
Launch vehicle
Mass (kg)
RCS (m²)

Purposes: comms

External: N2YO · Heavens-Above · Gunter

§ Orbital elements

Epoch: 2026-05-25T03:04:05.943648Z

Period
95.64 min
Inclination
97.4538°
Eccentricity
0.0001495
Mean motion
15.05660876 rev/d
Perigee alt
548.4 km
Apogee alt
550.5 km
Semi-major
6,927.6 km
B*
1.0237e-3
RAAN
16.5293°
Arg perigee
92.5191°
Mean anomaly
267.6208°
Rev number
4,177

§ Raw data

STARLINK-348481 65402U 25191Z   26145.12784657  .00014747  00000+0  10237-2 0  99902 65402  97.4538  16.5293 0001495  92.5191 267.6208 15.05660876 41771

JSON: /api/v1/satellites/65402 · /tle

For live sub-satellite position, see the globe view (requires WebGL).

§ Visibility from observer

Set your observer location to see the next 7 days of passes ≥ 10°. The values pass through the URL so the page stays shareable.

No JS? Fill the form by hand. The geolocation button needs JavaScript.